Location: L�Adrech
(44.2500°N, 6.4167°E)
Time: 14:59:39
(UTC+00:00)

STARLINK-1028 - Pass Details

Date: 07 June 2020
Orbit: 549 x 550 km, 53.0° (Epoch: 10 July)

Event Time Altitude Azimuth Distance (km) Brightness Sun altitude
Exits shadow 02:23:39 19° 208° (SSW) 1,337 5.0 -12.5°
Maximum altitude 02:26:21 49° 139° (SE) 708 4.1 -12.2°
Drops below altitude 10° 02:30:22 10° 64° (ENE) 1,824 7.4 -11.7°
Sets 02:32:39 0° 59° (ENE) 2,721 8.8 -11.4°
